EW5043 Weather Reports


time (UTC)temp
F
wind
direction
speed
knots
gust
knots
rain 1hr
in
rain 24hr
in
rain mn
in
humidity
%
barometer
mb
20260503213045 52 26 0.9 0.0 0.00 0.00 0.00 55 1007.6
20260503211536 51 26 0.9 0.0 0.00 0.00 0.00 55 1007.7
20260503210129 50 26 1.7 0.0 0.00 0.00 0.00 55 1007.7
20260503204519 50 26 0.9 0.0 0.00 0.00 0.00 54 1008.0
20260503203030 49 26 1.7 0.0 0.00 0.00 0.00 54 1008.1
20260503201501 49 26 1.7 0.0 0.00 0.00 0.00 55 1008.4
20260503200053 49 19 2.6 0.0 0.00 0.00 0.00 53 1008.7
20260503194545 49 18 2.6 0.0 0.00 0.00 0.00 53 1008.9
20260503193038 49 11 2.6 0.0 0.00 0.00 0.00 53 1009.2
20260503191525 49 11 1.7 0.0 0.00 0.00 0.00 53 1009.5
20260503190034 49 11 1.7 0.0 0.00 0.00 0.00 53 1009.7
20260503184511 49 11 1.7 0.0 0.00 0.00 0.00 53 1009.7
20260503183103 49 11 1.7 0.0 0.00 0.00 0.00 54 1009.9
20260503181650 49 11 1.7 0.0 0.00 0.00 0.00 54 1010.0
20260503180143 49 5 2.6 0.0 0.00 0.00 0.00 55 1010.0
20260503174631 48 5 2.6 0.0 0.00 0.00 0.00 55 1010.1
20260503173022 49 360 2.6 0.0 0.00 0.00 0.00 54 1010.3
20260503171512 48 349 2.6 0.0 0.00 0.00 0.00 54 1010.4
20260503130143 42 300 6.1 0.0 0.00 0.00 0.00 100 1012.4
20260503100157 43 302 7.0 0.0 0.00 0.00 0.00 100 1011.4
20260503080146 43 311 7.0 0.0 0.00 0.00 0.00 100 1011.9
20260503071525 43 318 7.0 0.0 0.00 0.00 0.00 14 1011.6
20260503060140 43 315 6.1 0.0 0.00 0.00 0.00 2 1011.9
20260503054547 43 313 7.0 0.0 0.00 0.00 0.00 4 1011.9
20260503053122 44 312 7.0 0.0 0.00 0.00 0.00 10 1012.0
20260503051513 44 311 7.8 0.0 0.00 0.00 0.00 16 1012.1
20260503050002 44 316 7.8 0.0 0.00 0.00 0.00 15 1012.2
20260503044654 44 313 7.8 0.0 0.00 0.00 0.00 22 1012.2
20260503043048 44 306 7.8 0.0 0.00 0.00 0.00 14 1012.3
20260503041536 45 312 7.8 0.0 0.00 0.00 0.00 14 1012.4
20260503040035 44 318 7.0 0.0 0.00 0.00 0.00 1 1012.5
20260503034519 44 307 7.0 0.0 0.00 0.00 0.01 100 1012.6
20260503033010 44 314 7.0 0.0 0.00 0.00 0.01 100 1012.7
20260503030051 43 310 7.0 0.0 0.00 0.00 0.01 1 1012.8
20260503024643 44 313 7.0 0.0 0.00 0.00 0.01 15 1012.9
20260503023035 44 313 7.0 0.0 0.00 0.00 0.01 9 1013.0
20260503021525 44 317 7.0 0.0 0.00 0.00 0.01 5 1013.0
20260503020016 43 321 6.1 0.0 0.00 0.00 0.01 100 1013.0
20260503014508 43 311 5.2 0.0 0.00 0.00 0.01 100 1013.1
20260503013057 43 325 6.1 0.0 0.00 0.00 0.01 100 1013.1
20260503011547 44 360 5.2 0.0 0.00 0.00 0.01 100 1013.2
20260503010040 44 313 5.2 0.0 0.00 0.00 0.01 100 1013.1
20260503004529 43 317 5.2 0.0 0.00 0.00 0.01 100 1012.9
20260503003020 43 312 5.2 0.0 0.00 0.00 0.01 100 1012.9
20260503001511 43 304 5.2 0.0 0.00 0.00 0.01 100 1012.8
20260503000002 43 309 6.1 0.0 0.00 0.00 0.01 100 1012.7
20260502234653 43 302 5.2 0.0 0.00 0.00 0.01 100 1012.7
20260502233044 43 296 4.3 0.0 0.00 0.00 0.01 100 1012.7
20260502231534 42 301 4.3 0.0 0.00 0.00 0.01 100 1012.6
20260502230025 42 303 4.3 0.0 0.00 0.00 0.01 100 1012.4
20260502224516 42 300 4.3 0.0 0.00 0.00 0.01 100 1012.5
20260502223007 42 307 4.3 0.0 0.00 0.00 0.01 100 1012.5
20260502221558 42 310 4.3 0.0 0.00 0.00 0.01 100 1012.5
20260502220049 42 302 5.2 0.0 0.00 0.00 0.01 100 1012.5
20260502214544 42 302 5.2 0.0 0.00 0.00 0.01 100 1012.5